Location: Gro�bocka
(50.8204°N, 11.9702°E)
Time: 07:53:50
(UTC+00:00)

Okean O Rocket - Pass Details

Date: 29 October 2020
Orbit: 623 x 644 km, 98.2° (Epoch: 01 December)

Event Time Altitude Azimuth Distance (km) Brightness Sun altitude
Rises 17:22:54 0° 195° (SSW) 2,907 5.3 -14.9°
Reaches altitude 10° 17:25:22 10° 208° (SSW) 2,002 4.6 -15.3°
Maximum altitude 17:29:04 27° 266° (W) 1,224 4.0 -15.9°
Drops below altitude 10° 17:32:46 10° 324° (NW) 2,009 4.6 -16.4°
Sets 17:35:16 0° 337° (NNW) 2,919 5.3 -16.8°
